When you browse on this site, cookies collect data to enhance your experience and personalize the content and advertising you see.
Visit our Privacy Policy to learn more. By continuing to use the site, you agree to this use of cookies and data.

Hourly Weather Gondomar

Today, 29 September, Tuesday

Time Temperature Precipitation Wind Pressure Humidity
00:00 +19°C° 0 mm 1 mps 753 mmHg 47%
01:00 +19°C° 0 mm 1 mps 752 mmHg 47%
02:00 +18°C° 0 mm 1 mps 752 mmHg 47%
03:00 +18°C° 0 mm 1 mps 752 mmHg 47%
04:00 +18°C° 0 mm 1 mps 753 mmHg 47%
05:00 +16°C° 0 mm 1 mps 753 mmHg 47%
06:00 +19°C° 0 mm 1 mps 753 mmHg 43%
07:00 +21°C° 0 mm 1 mps 753 mmHg 39%
08:00 +21°C° 0 mm 0 mps 753 mmHg 35%
09:00 +25°C° 0 mm 1 mps 753 mmHg 32%
10:00 +26°C° 0 mm 2 mps 753 mmHg 29%
11:00 +28°C° 0 mm 2 mps 753 mmHg 26%
12:00 +28°C° 0 mm 3 mps 753 mmHg 28%
13:00 +27°C° 0 mm 4 mps 752 mmHg 30%
14:00 +27°C° 0 mm 4 mps 752 mmHg 32%
15:00 +25°C° 0 mm 4 mps 752 mmHg 38%
16:00 +22°C° 0 mm 4 mps 752 mmHg 44%
17:00 +21°C° 0 mm 3 mps 752 mmHg 50%
18:00 +20°C° 0 mm 3 mps 752 mmHg 54%
19:00 +19°C° 0 mm 3 mps 753 mmHg 59%
20:00 +17°C° 0 mm 3 mps 753 mmHg 64%
21:00 +17°C° 0 mm 3 mps 753 mmHg 65%
22:00 +16°C° 0 mm 3 mps 753 mmHg 67%
23:00 +16°C° 0 mm 2 mps 753 mmHg 68%

Tomorrow, 30 September, Wednesday

Time Temperature Precipitation Wind Pressure Humidity
00:00 +16°C° 0 mm 2 mps 753 mmHg 69%
01:00 +15°C° 0 mm 2 mps 752 mmHg 69%
02:00 +15°C° 0 mm 2 mps 752 mmHg 69%
03:00 +15°C° 0 mm 2 mps 752 mmHg 71%
04:00 +15°C° 0 mm 2 mps 752 mmHg 72%
05:00 +15°C° 0 mm 2 mps 752 mmHg 74%
06:00 +16°C° 0 mm 2 mps 753 mmHg 72%
07:00 +18°C° 0 mm 3 mps 753 mmHg 70%
08:00 +19°C° 0 mm 3 mps 753 mmHg 68%
09:00 +20°C° 0 mm 3 mps 753 mmHg 62%
10:00 +21°C° 0 mm 3 mps 753 mmHg 56%
11:00 +22°C° 0 mm 4 mps 753 mmHg 51%
12:00 +22°C° 0 mm 4 mps 752 mmHg 52%
13:00 +22°C° 0 mm 4 mps 752 mmHg 53%
14:00 +21°C° 0 mm 5 mps 752 mmHg 54%
15:00 +20°C° 0 mm 4 mps 752 mmHg 60%
16:00 +19°C° 0 mm 4 mps 752 mmHg 66%
17:00 +18°C° 0 mm 3 mps 752 mmHg 72%
18:00 +17°C° 0 mm 2 mps 752 mmHg 77%
19:00 +16°C° 0 mm 2 mps 752 mmHg 82%
20:00 +16°C° 0 mm 1 mps 752 mmHg 86%
21:00 +16°C° 0 mm 1 mps 752 mmHg 85%
22:00 +18°C° 0 mm 1 mps 752 mmHg 84%
23:00 +18°C° 0 mm 1 mps 752 mmHg 83%

Day after tomorrow, 1 October, Thursday

Time Temperature Precipitation Wind Pressure Humidity
00:00 +18°C° 0.1 mm 1 mps 751 mmHg 84%
01:00 +17°C° 0.1 mm 2 mps 751 mmHg 84%
02:00 +17°C° 0.1 mm 3 mps 751 mmHg 85%
03:00 +17°C° 0.2 mm 2 mps 751 mmHg 87%
04:00 +17°C° 0.2 mm 2 mps 751 mmHg 89%
05:00 +17°C° 0.2 mm 2 mps 751 mmHg 91%
06:00 +18°C° 0 mm 2 mps 751 mmHg 86%
07:00 +18°C° 0 mm 2 mps 751 mmHg 80%
08:00 +19°C° 0 mm 2 mps 751 mmHg 75%
09:00 +20°C° 0 mm 2 mps 750 mmHg 69%
10:00 +20°C° 0 mm 3 mps 750 mmHg 64%
11:00 +21°C° 0 mm 3 mps 750 mmHg 58%
12:00 +21°C° 0 mm 3 mps 750 mmHg 59%
13:00 +21°C° 0 mm 4 mps 749 mmHg 59%
14:00 +21°C° 0 mm 5 mps 749 mmHg 60%
15:00 +20°C° 0.2 mm 5 mps 749 mmHg 68%
16:00 +19°C° 0.2 mm 4 mps 748 mmHg 77%
17:00 +17°C° 0.2 mm 4 mps 748 mmHg 85%
18:00 +17°C° 0.1 mm 4 mps 748 mmHg 84%
19:00 +17°C° 0.1 mm 4 mps 748 mmHg 82%
20:00 +15°C° 0.1 mm 4 mps 748 mmHg 81%
21:00 +15°C° 0.2 mm 5 mps 746 mmHg 84%
22:00 +16°C° 0.2 mm 6 mps 745 mmHg 87%
23:00 +16°C° 0.2 mm 7 mps 744 mmHg 90%

2 October, Friday

Time Temperature Precipitation Wind Pressure Humidity
00:00 +16°C° 1.2 mm 8 mps 743 mmHg 89%
01:00 +17°C° 1.2 mm 8 mps 743 mmHg 88%
02:00 +17°C° 1.2 mm 8 mps 742 mmHg 87%
03:00 +16°C° 1.1 mm 8 mps 742 mmHg 87%
04:00 +16°C° 1.1 mm 8 mps 742 mmHg 87%
05:00 +15°C° 1.1 mm 8 mps 742 mmHg 87%
06:00 +15°C° 0.1 mm 8 mps 742 mmHg 80%
07:00 +13°C° 0.1 mm 8 mps 742 mmHg 73%
08:00 +13°C° 0.1 mm 8 mps 743 mmHg 66%
09:00 +13°C° 0.2 mm 8 mps 743 mmHg 63%
10:00 +15°C° 0.2 mm 8 mps 743 mmHg 60%
11:00 +15°C° 0.2 mm 9 mps 744 mmHg 57%
12:00 +15°C° 0.4 mm 9 mps 744 mmHg 58%
13:00 +15°C° 0.4 mm 9 mps 743 mmHg 59%
14:00 +15°C° 0.4 mm 9 mps 743 mmHg 60%
15:00 +13°C° 0.6 mm 9 mps 744 mmHg 64%
16:00 +12°C° 0.6 mm 8 mps 744 mmHg 69%
17:00 +12°C° 0.6 mm 7 mps 744 mmHg 73%
18:00 +11°C° 0.2 mm 7 mps 745 mmHg 74%
19:00 +11°C° 0.2 mm 6 mps 745 mmHg 74%
20:00 +10°C° 0.2 mm 6 mps 746 mmHg 75%
21:00 +10°C° 0.2 mm 6 mps 746 mmHg 76%
22:00 +10°C° 0.2 mm 6 mps 746 mmHg 76%
23:00 +10°C° 0.2 mm 6 mps 746 mmHg 77%

3 October, Saturday

Time Temperature Precipitation Wind Pressure Humidity
00:00 +11°C° 0.2 mm 6 mps 746 mmHg 77%
01:00 +11°C° 0.2 mm 6 mps 746 mmHg 76%
02:00 +11°C° 0.2 mm 6 mps 746 mmHg 76%
03:00 +11°C° 0.1 mm 6 mps 746 mmHg 77%
04:00 +11°C° 0.1 mm 6 mps 747 mmHg 77%
05:00 +11°C° 0.1 mm 6 mps 747 mmHg 78%
06:00 +13°C° 0.1 mm 6 mps 747 mmHg 74%
07:00 +12°C° 0.1 mm 7 mps 747 mmHg 71%
08:00 +14°C° 0.1 mm 7 mps 747 mmHg 67%
09:00 +15°C° 0.1 mm 7 mps 747 mmHg 64%
10:00 +15°C° 0.1 mm 7 mps 748 mmHg 60%
11:00 +16°C° 0.1 mm 7 mps 748 mmHg 56%
12:00 +16°C° 0.1 mm 7 mps 748 mmHg 56%
13:00 +16°C° 0.1 mm 7 mps 748 mmHg 57%
14:00 +16°C° 0.1 mm 7 mps 748 mmHg 57%
15:00 +15°C° 0.1 mm 6 mps 748 mmHg 61%
16:00 +15°C° 0.1 mm 5 mps 748 mmHg 64%
17:00 +14°C° 0.1 mm 5 mps 748 mmHg 67%
18:00 +13°C° 0 mm 4 mps 748 mmHg 70%
19:00 +13°C° 0 mm 3 mps 749 mmHg 73%
20:00 +12°C° 0 mm 3 mps 749 mmHg 76%
21:00 +12°C° 0 mm 3 mps 749 mmHg 77%
22:00 +13°C° 0 mm 3 mps 748 mmHg 78%
23:00 +13°C° 0 mm 3 mps 748 mmHg 80%

4 October, Sunday

Time Temperature Precipitation Wind Pressure Humidity
00:00 +13°C° 0.2 mm 4 mps 747 mmHg 82%
01:00 +13°C° 0.2 mm 4 mps 747 mmHg 84%
02:00 +13°C° 0.2 mm 5 mps 746 mmHg 87%
03:00 +14°C° 1.6 mm 5 mps 746 mmHg 89%
04:00 +14°C° 1.6 mm 4 mps 746 mmHg 92%
05:00 +15°C° 1.6 mm 4 mps 746 mmHg 94%
06:00 +15°C° 0.2 mm 5 mps 746 mmHg 88%
07:00 +16°C° 0.2 mm 6 mps 747 mmHg 83%
08:00 +16°C° 0.2 mm 7 mps 747 mmHg 77%
09:00 +17°C° 0.1 mm 7 mps 747 mmHg 71%
10:00 +18°C° 0.1 mm 7 mps 748 mmHg 64%
11:00 +18°C° 0.1 mm 7 mps 748 mmHg 58%
12:00 +18°C° 0 mm 7 mps 748 mmHg 57%
13:00 +18°C° 0 mm 7 mps 748 mmHg 55%
14:00 +18°C° 0 mm 7 mps 748 mmHg 54%
15:00 +17°C° 0 mm 6 mps 749 mmHg 61%
16:00 +16°C° 0 mm 6 mps 749 mmHg 67%
17:00 +15°C° 0 mm 6 mps 749 mmHg 74%
18:00 +14°C° 0.1 mm 5 mps 750 mmHg 76%
19:00 +14°C° 0.1 mm 4 mps 750 mmHg 79%
20:00 +13°C° 0.1 mm 4 mps 751 mmHg 81%
21:00 +13°C° 0 mm 4 mps 751 mmHg 81%
22:00 +13°C° 0 mm 4 mps 751 mmHg 81%
23:00 +12°C° 0 mm 4 mps 752 mmHg 81%
Show more